TimeCST,TemperatureF,Dew PointF,Humidity,Sea Level PressureIn,VisibilityMPH,Wind Direction,Wind SpeedMPH,Gust SpeedMPH,PrecipitationIn,Events,Conditions,WindDirDegrees,DateUTC
12:15 AM,19.4,16.3,88,30.50,10.0,WSW,4.6,-,N/A,,Clear,250,2012-11-16 06:15:00
12:35 AM,19.4,16.5,89,30.49,10.0,WSW,3.5,-,N/A,,Clear,240,2012-11-16 06:35:00
12:55 AM,18.1,15.8,91,30.48,10.0,WSW,3.5,-,N/A,,Clear,240,2012-11-16 06:55:00
1:15 AM,18.3,16.2,91,30.48,10.0,Calm,Calm,-,N/A,,Clear,0,2012-11-16 07:15:00
1:34 AM,17.8,15.4,91,30.48,10.0,SW,3.5,-,N/A,,Clear,230,2012-11-16 07:34:00
1:55 AM,17.4,15.1,91,30.48,10.0,WSW,3.5,-,N/A,,Clear,250,2012-11-16 07:55:00
2:15 AM,17.4,14.9,90,30.48,10.0,Calm,Calm,-,N/A,,Clear,0,2012-11-16 08:15:00
2:35 AM,16.3,14.2,91,30.47,10.0,Calm,Calm,-,N/A,,Clear,0,2012-11-16 08:35:00
2:55 AM,16.2,14.4,93,30.47,10.0,Calm,Calm,-,N/A,,Clear,0,2012-11-16 08:55:00
3:14 AM,16.2,14.2,92,30.47,10.0,Calm,Calm,-,N/A,,Clear,0,2012-11-16 09:14:00
3:35 AM,16.7,14.7,92,30.46,10.0,Calm,Calm,-,N/A,,Clear,0,2012-11-16 09:35:00
3:55 AM,16.2,14.9,95,30.45,10.0,Calm,Calm,-,N/A,,Clear,0,2012-11-16 09:55:00
4:14 AM,16.3,14.9,94,30.45,10.0,Calm,Calm,-,N/A,,Clear,0,2012-11-16 10:14:00
4:35 AM,16.3,14.5,93,30.44,10.0,Calm,Calm,-,N/A,,Clear,0,2012-11-16 10:35:00
4:55 AM,16.7,14.9,93,30.44,10.0,Calm,Calm,-,N/A,,Clear,0,2012-11-16 10:55:00
5:15 AM,16.7,14.9,93,30.43,10.0,Calm,Calm,-,N/A,,Clear,0,2012-11-16 11:15:00
5:35 AM,16.9,15.3,93,30.43,10.0,Calm,Calm,-,N/A,,Clear,0,2012-11-16 11:35:00
5:55 AM,17.1,15.4,93,30.42,10.0,Calm,Calm,-,N/A,,Clear,0,2012-11-16 11:55:00
6:15 AM,17.1,14.7,91,30.42,10.0,SE,3.5,-,N/A,,Clear,130,2012-11-16 12:15:00
6:35 AM,15.4,13.1,90,30.42,10.0,SSE,3.5,-,N/A,,Clear,160,2012-11-16 12:35:00
6:55 AM,17.4,14.5,88,30.42,10.0,SSE,3.5,-,N/A,,Clear,160,2012-11-16 12:55:00
7:15 AM,16.7,14.0,89,30.42,10.0,SSE,3.5,-,N/A,,Clear,160,2012-11-16 13:15:00
7:35 AM,19.6,14.9,82,30.43,10.0,South,3.5,-,N/A,,Clear,180,2012-11-16 13:35:00
7:54 AM,19.6,14.7,81,30.43,10.0,Calm,Calm,-,N/A,,Clear,0,2012-11-16 13:54:00
8:15 AM,20.1,16.9,87,30.43,10.0,SE,3.5,-,N/A,,Clear,130,2012-11-16 14:15:00
8:35 AM,21.9,18.1,85,30.43,10.0,SE,3.5,-,N/A,,Clear,130,2012-11-16 14:35:00
8:54 AM,25.2,19.0,78,30.43,10.0,SE,5.8,-,N/A,,Clear,140,2012-11-16 14:54:00
9:15 AM,26.4,20.1,77,30.42,10.0,SE,6.9,-,N/A,,Clear,140,2012-11-16 15:15:00
9:34 AM,29.1,21.9,74,30.43,10.0,SSE,5.8,-,N/A,,Clear,160,2012-11-16 15:34:00
9:55 AM,32.0,21.4,65,30.42,10.0,SSE,6.9,-,N/A,,Clear,150,2012-11-16 15:55:00
10:15 AM,34.9,21.9,59,30.42,10.0,SE,6.9,-,N/A,,Clear,140,2012-11-16 16:15:00
10:35 AM,37.6,20.5,50,30.42,10.0,South,8.1,-,N/A,,Clear,170,2012-11-16 16:35:00
10:55 AM,39.4,20.5,47,30.41,10.0,SSE,9.2,-,N/A,,Clear,160,2012-11-16 16:55:00
11:15 AM,41.2,19.6,42,30.40,10.0,SSE,9.2,-,N/A,,Clear,160,2012-11-16 17:15:00
11:34 AM,41.7,17.1,37,30.39,10.0,SSE,9.2,-,N/A,,Clear,160,2012-11-16 17:34:00
11:55 AM,42.6,18.1,37,30.38,10.0,South,8.1,-,N/A,,Clear,190,2012-11-16 17:55:00
12:15 PM,43.7,18.0,36,30.36,10.0,South,11.5,-,N/A,,Clear,170,2012-11-16 18:15:00
12:35 PM,43.7,16.2,33,30.34,10.0,SSE,12.7,-,N/A,,Clear,160,2012-11-16 18:35:00
12:55 PM,45.5,15.4,30,30.32,10.0,South,10.4,16.1,N/A,,Clear,170,2012-11-16 18:55:00
1:14 PM,46.6,15.8,29,30.31,10.0,South,11.5,17.3,N/A,,Clear,170,2012-11-16 19:14:00
1:35 PM,47.3,15.8,28,30.30,10.0,SSE,12.7,-,N/A,,Clear,150,2012-11-16 19:35:00
1:55 PM,47.3,15.8,28,30.29,10.0,SSE,11.5,-,N/A,,Clear,160,2012-11-16 19:55:00
2:15 PM,47.8,17.4,30,30.28,10.0,SE,15.0,-,N/A,,Clear,140,2012-11-16 20:15:00
2:34 PM,48.2,18.5,31,30.27,10.0,SSE,9.2,-,N/A,,Clear,150,2012-11-16 20:34:00
2:55 PM,48.4,19.8,32,30.26,10.0,SSE,16.1,-,N/A,,Clear,150,2012-11-16 20:55:00
3:15 PM,48.4,20.8,34,30.26,10.0,SE,13.8,-,N/A,,Clear,140,2012-11-16 21:15:00
3:35 PM,47.7,21.6,36,30.25,10.0,SSE,16.1,20.7,N/A,,Clear,150,2012-11-16 21:35:00
3:55 PM,46.9,22.6,38,30.25,10.0,SSE,15.0,-,N/A,,Clear,150,2012-11-16 21:55:00
4:15 PM,45.7,23.9,42,30.24,10.0,SSE,10.4,-,N/A,,Clear,150,2012-11-16 22:15:00
4:35 PM,44.6,24.8,46,30.23,10.0,SE,11.5,-,N/A,,Clear,140,2012-11-16 22:35:00
4:55 PM,41.9,25.5,52,30.22,10.0,SE,10.4,-,N/A,,Clear,140,2012-11-16 22:55:00
5:15 PM,39.4,25.7,58,30.21,10.0,SE,10.4,-,N/A,,Clear,130,2012-11-16 23:15:00
5:35 PM,39.2,25.7,58,30.21,10.0,SE,11.5,-,N/A,,Clear,140,2012-11-16 23:35:00
5:54 PM,38.3,26.1,61,30.20,10.0,SE,10.4,-,N/A,,Clear,140,2012-11-16 23:54:00
6:15 PM,36.7,26.4,66,30.21,10.0,SE,8.1,-,N/A,,Clear,130,2012-11-17 00:15:00
6:35 PM,34.9,26.4,71,30.20,10.0,SSE,8.1,-,N/A,,Clear,150,2012-11-17 00:35:00
6:55 PM,35.6,27.3,72,30.19,10.0,SSE,8.1,-,N/A,,Clear,150,2012-11-17 00:55:00
7:15 PM,36.5,28.0,71,30.19,10.0,SSE,6.9,-,N/A,,Clear,150,2012-11-17 01:15:00
7:34 PM,35.6,28.0,74,30.19,10.0,SE,6.9,-,N/A,,Clear,140,2012-11-17 01:34:00
7:55 PM,34.7,28.4,78,30.19,10.0,ESE,8.1,-,N/A,,Clear,120,2012-11-17 01:55:00
8:15 PM,36.7,29.5,75,30.19,10.0,SSE,10.4,-,N/A,,Clear,160,2012-11-17 02:15:00
8:34 PM,41.5,29.8,63,30.18,10.0,SSE,9.2,-,N/A,,Clear,160,2012-11-17 02:34:00
8:55 PM,41.9,29.7,62,30.18,10.0,South,13.8,17.3,N/A,,Clear,170,2012-11-17 02:55:00
9:15 PM,42.6,29.7,60,30.18,10.0,South,15.0,19.6,N/A,,Clear,170,2012-11-17 03:15:00
10:15 PM,43.0,30.6,62,30.18,10.0,South,16.1,23.0,N/A,,Clear,190,2012-11-17 04:15:00
10:35 PM,43.0,31.1,63,30.17,10.0,South,16.1,32.2,N/A,,Clear,190,2012-11-17 04:35:00
10:54 PM,42.8,31.5,64,30.16,10.0,South,18.4,26.5,N/A,,Clear,180,2012-11-17 04:54:00
11:15 PM,42.8,32.0,66,30.16,10.0,South,16.1,23.0,N/A,,Clear,190,2012-11-17 05:15:00
11:35 PM,43.3,32.0,64,30.16,10.0,South,18.4,26.5,N/A,,Clear,190,2012-11-17 05:35:00
11:55 PM,43.3,32.2,65,30.16,10.0,South,17.3,25.3,N/A,,Clear,190,2012-11-17 05:55:00